星链-30369 (STARLINK-30369 )

导读

STARLINK-30369是美国SpaceX公司星链(Starlink)星座的一员,于2023年9月4日发射入轨,属于星链低轨卫星互联网项目。星链计划旨在构建全球覆盖的高速低延迟卫星互联网网络,弥补偏远地区传统地面网络覆盖空白,可为海事、航空、灾害救援等场景提供稳定通信服务,STARLINK-30369的入轨进一步扩充了星链在轨卫星规模,助力全球网络覆盖完善。

基本信息
目录编号:
57781
目录名称:
STARLINK-30369
国际标识:
2023-134L
轨道中心:
EARTH
卫星名称:
星链-30369
卫星全名:
星链-30369 (STARLINK-30369 )
卫星状态:
在轨 (已飞行1018 天)
发射日期:
2023-09-04 UTC
国别 :
美国 (US)
星等 :
--
轨道信息
数据来源 国际轨道数据
星历时间: 2026-06-18T05:31:54+0800
15小时前
查看轨道信息
半长轴: 6861.228km
偏心率: 0.000464
轨道倾角: 43.013°
近地点辐角 279.876°
升交点赤经 348.442°
平近点角 80.157°
近地点: 479.907km
远地点: 486.275km
周期: 94.268分钟
每日圈数: 15.275661
详细信息
固有亮度:
5
最大亮度:
0.3
卫星平台:
Starlink v2.0 mini
覆盖范围:
全球
运营商:
太空探索技术公司
运营商所在国:
美国
制造商(研发单位):
太空探索技术公司
制造商所在国:
美国
使用方式:
暂无
卫星简介
星链(Starlink)计划是由太空探索技术公司(SpaceX)提出的一个巨型低轨卫星互联网星座项目,计划在2019年至2024年间在太空搭建由约1.2万颗卫星组成的“星链”网络,其中1584颗将部署在地球上空550千米处的近地轨道,并从2020年开始工作。该卫星仍在工作。
2D轨道图
3D轨道图
轨道高度分析图
轨道倾角分析图
轨道综合分析图
查看轨道综合分析图